Regional Weather Roundup
Issued by NWS

Home | Current Version | Previous Version | Text Only | Print | Product List | Glossary Off
Versions: 1 2 3 4 5 6 7 8 9 10 11 12 13 14 15 16 17 18 19 20 21 22 23 24 25 26 27 28 29 30 31 32 33 34 35 36 37 38 39 40 41 42 43 44 45 46 47 48 49 50

000
ASUS43 KBIS 280320
RWRND

NORTH DAKOTA REGIONAL WEATHER ROUNDUP
NATIONAL WEATHER SERVICE BISMARCK ND
900 PM CST THU NOV 27 2014

NOTE: "FAIR" INDICATES FEW OR NO CLOUDS BELOW 12,000 FEET WITH NO
SIGNIFICANT WEATHER AND/OR OBSTRUCTIONS TO VISIBILITY.


NDZ001>003-009>011-017-280400-
NORTHWEST NORTH DAKOTA

CITY           SKY/WX    TMP DP  RH WIND       PRES   REMARKS
WILLISTON      PTCLDY    14  10  84 E7        29.83F WCI   4
MINOT          CLOUDY    11   7  84 E7        29.94S WCI   0
MINOT AFB      CLOUDY    10   7  89 SE15      29.95S WCI  -7
$$

NDZ018>021-031>035-040>046-280400-
SOUTHWEST NORTH DAKOTA

CITY           SKY/WX    TMP DP  RH WIND       PRES   REMARKS
BISMARCK       CLOUDY    11   4  73 SE13      29.95F WCI  -4
DICKINSON      CLEAR     22  18  85 S9        29.75F WCI  12
GARRISON         N/A     11   7  84 SE13      29.90F WCI  -4
HETTINGER ARPT CLEAR     22  18  85 S5        29.81F WCI  16
$$

NDZ004>008-012>016-024-026-027-054-280400-
NORTHEAST NORTH DAKOTA

CITY           SKY/WX    TMP DP  RH WIND       PRES   REMARKS
GRAND FORKS    LGT SNOW   9   3  78 S12       30.16F WCI  -6
GRND FRKS AFB  LGT SNOW   7   3  85 S13       30.14F WCI  -9
DEVILS LAKE    CLOUDY     7  -4  61 SE14      30.03S WCI -10
$$

NDZ022-023-025-028>030-036>039-047>053-280400-
SOUTHEAST NORTH DAKOTA

CITY           SKY/WX    TMP DP  RH WIND       PRES   REMARKS
FARGO          LGT SNOW   9   2  73 SE8       30.20R WCI  -3
JAMESTOWN      LGT SNOW   6   2  83 SE15G22   30.03F FOG     WCI -12
$$



USA.gov is the U.S. government's official web portal to all federal, state and local government web resources and services.